Regional Weather Roundup
Issued by NWS State College, PA

Home | Current Version | Previous Version | Graphics & Text | Print | Product List | Glossary Off
Versions: 1 2 3 4 5 6 7 8 9 10 11 12 13 14 15 16 17 18 19 20 21 22 23 24 25 26 27 28 29 30 31 32 33 34 35 36 37 38 39 40 41 42 43 44 45 46 47 48 49 50

000
ASUS41 KCTP 190003
RWRCTP

REGIONAL WEATHER ROUNDUP
NATIONAL WEATHER SERVICE STATE COLLEGE PA
700 PM EST WED JAN 18 2017

Note: "fair" indicates few or no clouds below 12,000 feet with no
significant weather and/or obstructions to visibility.

* = STATION THAT DOES NOT REPORT PRECIPITATION /E.G. RAIN...SNOW...ETC/
    THUNDER OR FOG.

PAZ002>004-007>009-013>016-020>023-029>032-190100-
WESTERN PENNSYLVANIA

CITY           SKY/WX    TMP DP  RH WIND       PRES   REMARKS
ERIE           CLOUDY    37  35  92 SW8       30.08S FOG
MEADVILLE      CLOUDY    36  34  92 SW7       30.06S FOG
FRANKLIN*        N/A     36  32  87 SW8       30.08R
NEW CASTLE     MIX PCPN  37  37 100 CALM      30.11S FOG
BEAVER COUNTY  CLOUDY    37  34  87 W7        30.10R
BUTLER*        CLOUDY    37  34  87 W7        30.11S
PITTSBURGH INT CLOUDY    39  35  86 W5        30.09S
PITTSBURGH     CLOUDY    39  32  76 W8        30.10R
INDIANA*       CLOUDY    37  36  93 W10       30.11R
LATROBE        CLOUDY    39  34  81 W8        30.12R
WASHINGTON CO* CLOUDY    39  34  81 SW9       30.11S
$$

PAZ004>006-010>012-017>019-024>028-033>037-041-042-045-046-049>053-190100-
CENTRAL PENNSYLVANIA

CITY           SKY/WX    TMP DP  RH WIND       PRES   REMARKS
BRADFORD       CLOUDY    34  33  96 W7        30.01S FOG
DUBOIS         CLOUDY    35  33  92 W9        30.04S FOG
CLEARFIELD     CLOUDY    37  36  96 SW5       30.06R
JOHNSTOWN      CLOUDY    34  33  96 W10       30.04R FOG
ALTOONA        CLOUDY    40  34  79 W6        30.07R
STATE COLLEGE  CLOUDY    39  34  81 NW9       30.06R
WILLIAMSPORT   CLOUDY    43  36  76 W6        30.04R
SELINSGROVE    CLOUDY    44  37  76 NW6       30.05S
FT INDIANTOWN  CLOUDY    46  40  78 CALM      30.03S
CAPITAL CITY   CLOUDY    48  35  60 NW7       30.05R
HARRISBURG     CLOUDY    47  37  68 NW8       30.04R
YORK           CLOUDY    46  38  73 NW5       30.05R
$$

PAZ038>040-043-044-047-048-054-055-060>062-067>071-190100-
EASTERN PENNSYLVANIA

CITY           SKY/WX    TMP DP  RH WIND       PRES   REMARKS
SCRANTON       CLOUDY    39  38  96 CALM      30.02S
MOUNT POCONO   CLOUDY    35  33  92 NW8       29.98R
ALLENTOWN      CLOUDY    43  38  82 CALM      30.04R
QUAKERTOWN*    CLOUDY    41  39  93 CALM      30.04R
READING        MOCLDY    46  37  71 NW9       30.03R
LANCASTER      CLOUDY    47  40  76 NW6       30.04R
COATESVILLE    CLOUDY    46  39  76 N7        30.04S
POTTSTOWN      CLOUDY    45  38  76 N7        30.05R
BLUE BELL      CLOUDY    43  37  81 CALM      30.04R
DOYLESTOWN     CLOUDY    43  39  86 N3        30.03R
WILLOW GROVE   NOT AVBL
NORTH PHILA    CLOUDY    45  39  79 N6        30.05R
PHILADELPHIA   CLOUDY    47  39  74 N13       30.05R
$$




USA.gov is the U.S. government's official web portal to all federal, state and local government web resources and services.